Location: Silverdale
(47.6506°N, 122.6941°W)
Time: 11:41:12
(UTC+00:00)

Tiros 1 - All Passes

Search period start: 05 October 2022 00:00
Search period end: 15 October 2022 00:00
Orbit: 629 x 663 km, 48.4° (Epoch: 05 October)

Date Brightness Start Highest point End Pass type
(mag) Time Alt. Az. Time Alt. Az. Time Alt. Az.
05 Oct - 05:27:39 10° S 05:30:18 15° SE 05:32:57 10° ESE night (unlit)
05 Oct - 07:07:04 10° SW 07:11:43 50° SSE 07:16:21 10° ENE night (unlit)
05 Oct - 08:48:58 10° W 08:53:48 85° N 08:58:36 10° E night (unlit)
05 Oct - 10:31:17 10° W 10:36:07 86° S 10:40:52 10° ESE visible
05 Oct - 12:13:39 10° W 12:18:02 36° SSW 12:22:20 10° SE visible
06 Oct - 05:51:25 10° SSW 05:55:28 28° SE 05:59:33 10° E night (unlit)
06 Oct - 07:32:26 10° WSW 07:37:15 75° SSE 07:42:02 10° ENE night (unlit)
06 Oct - 09:14:41 10° W 09:19:31 81° N 09:24:18 10° E night (unlit)
06 Oct - 10:56:57 10° WNW 11:01:42 63° SSW 11:06:23 10° ESE visible
06 Oct - 12:39:48 10° W 12:43:17 20° SW 12:46:44 10° S visible
07 Oct - 04:37:09 10° SSE 04:39:28 13° SE 04:41:47 10° ESE night (unlit)
07 Oct - 06:16:13 10° SW 06:20:50 47° SSE 06:25:27 10° E night (unlit)
07 Oct - 07:58:03 10° W 08:02:53 86° N 08:07:42 10° E night (unlit)
07 Oct - 09:40:23 10° W 09:45:12 89° SSW 09:49:59 10° ESE night (unlit)
07 Oct - 11:22:43 10° W 11:27:09 39° SSW 11:31:33 10° SE visible
08 Oct - 05:00:40 10° SSW 05:04:37 26° SE 05:08:35 10° E night (unlit)
08 Oct - 06:41:33 10° WSW 06:46:21 72° SSE 06:51:08 10° ENE night (unlit)
08 Oct - 08:23:46 10° W 08:28:36 81° N 08:33:24 10° E night (unlit)
08 Oct - 10:06:02 10° WNW 10:10:48 66° SSW 10:15:31 10° ESE night (unlit)
08 Oct - 11:48:46 10° W 11:52:26 22° SW 11:56:03 10° S visible
09 Oct - 03:46:43 10° SSE 03:48:38 12° SE 03:50:33 10° ESE visible
09 Oct - 05:25:23 10° SW 05:29:57 44° SSE 05:34:31 10° E night (unlit)
09 Oct - 07:07:08 10° W 07:11:58 88° NNW 07:16:48 10° E night (unlit)
09 Oct - 08:49:28 10° W 08:54:17 89° NNE 08:59:05 10° ESE night (unlit)
09 Oct - 10:31:46 10° W 10:36:17 41° SSW 10:40:44 10° SE night (unlit)
09 Oct - 12:16:18 10° WSW 12:17:31 11° SW 12:18:43 10° SSW visible
10 Oct - 04:09:56 10° SSW 04:13:45 24° SE 04:17:35 10° E visible
10 Oct - 05:50:39 10° WSW 05:55:26 69° SSE 06:00:14 10° ENE night (unlit)
10 Oct - 07:32:50 10° W 07:37:40 81° N 07:42:29 10° E night (unlit)
10 Oct - 09:15:07 10° WNW 09:19:54 69° SSW 09:24:39 10° ESE night (unlit)
10 Oct - 10:57:45 10° W 11:01:34 24° SW 11:05:20 10° SSE night (unlit)
11 Oct - 02:56:27 10° SSE 02:57:47 11° SE 02:59:08 10° ESE visible
11 Oct - 04:34:32 10° SW 04:39:03 42° SSE 04:43:35 10° E visible
11 Oct - 06:16:12 10° WSW 06:21:03 89° NNW 06:25:52 10° E night (unlit)
11 Oct - 07:58:31 10° W 08:03:21 88° N 08:08:10 10° E night (unlit)
11 Oct - 09:40:49 10° W 09:45:23 44° SSW 09:49:55 10° SE night (unlit)
11 Oct - 11:24:50 10° WSW 11:26:41 12° SW 11:28:31 10° SSW night (unlit)
12 Oct - 03:19:12 10° S 03:22:53 22° SE 03:26:35 10° E visible
12 Oct - 04:59:45 10° WSW 05:04:30 66° SSE 05:09:18 10° ENE visible
12 Oct - 06:41:53 10° W 06:46:44 81° N 06:51:34 10° E night (unlit)
12 Oct - 08:24:11 10° WNW 08:28:59 72° SSW 08:33:45 10° ESE night (unlit)
12 Oct - 10:06:45 10° W 10:10:42 26° SW 10:14:37 10° SSE night (unlit)
13 Oct - 03:43:42 10° SW 03:48:09 39° SSE 03:52:37 10° E visible
13 Oct - 05:25:17 10° WSW 05:30:06 89° S 05:34:57 10° E visible
13 Oct - 07:07:35 10° W 07:12:25 86° N 07:17:15 10° E night (unlit)
13 Oct - 08:49:52 10° W 08:54:29 47° SSW 08:59:04 10° SE night (unlit)
13 Oct - 10:33:33 10° WSW 10:35:50 13° SW 10:38:07 10° SSW night (unlit)
14 Oct - 02:28:29 10° S 02:32:00 21° SE 02:35:32 10° E visible
14 Oct - 04:08:51 10° WSW 04:13:36 63° SSE 04:18:22 10° ENE visible
14 Oct - 05:50:57 10° W 05:55:47 81° N 06:00:37 10° E visible
14 Oct - 07:33:14 10° WNW 07:38:04 75° SSW 07:42:51 10° ESE night (unlit)
14 Oct - 09:15:45 10° W 09:19:48 28° SW 09:23:51 10° SSE night (unlit)
